Location: Unspecified
(0.0000°N, 0.0000°E)
Time: 07:07:53
(UTC+00:00)

USA 238 DEB - Pass Details

Date: 29 May 2023
Orbit: 930 x 1283 km, 63.4° (Epoch: 27 September)

Event Time Altitude Azimuth Distance (km) Brightness Sun altitude
Rises 18:32:59 0° 199° (SSW) 3,624 6.5 -8.3°
Reaches altitude 10° 18:35:34 10° 196° (SSW) 2,654 5.7 -8.9°
Maximum altitude 18:41:40 71° 113° (ESE) 978 3.3 -10.3°
Drops below altitude 10° 18:47:44 10° 30° (NNE) 2,644 5.7 -11.7°
Sets 18:50:18 0° 28° (NNE) 3,610 6.4 -12.3°
